星链-5847 (STARLINK-5847 )

导读 | 星芒AI

STARLINK-5847 是 SpaceX Starlink 卫星互联网项目中的一颗低轨卫星,属于第二批部署的“Block 4”系列。该卫星于2022年发射,运行在约550公里高度的近地轨道,旨在为全球用户提供高速互联网服务。它采用先进的相控阵天线和激光通信技术,支持低延迟、高带宽的网络连接。STARLINK-5847 与其他 Starlink 卫星协同工作,增强覆盖范围和系统稳定性,尤其服务于偏远和网络基础设施薄弱的地区。

基本信息
目录编号:
57048
目录名称:
STARLINK-5847
国际标识:
2023-088A
轨道中心:
EARTH
卫星名称:
星链-5847
卫星全名:
星链-5847 (STARLINK-5847 )
卫星状态:
已陨落 最后检测时间 2025-02-26
发射日期:
2023-06-22 UTC
国别 :
美国 (US)
星等 :
--
轨道信息
数据来源 国际轨道数据
星历时间: 2025-02-27T02:24:13+0800
轨道信息已过期297天
半长轴: 6531.143km
偏心率: 0.0007678
轨道倾角: 42.981°
近地点辐角 238.101°
升交点赤经 313.225°
平近点角 181.118°
近地点: 147.993km
远地点: 158.023km
周期: 87.547分钟
每日圈数: 16.448224
详细信息
固有亮度:
5
最大亮度:
2.4
卫星平台:
Starlink v1.5
覆盖范围:
全球
运营商:
太空探索技术公司
运营商所在国:
美国
制造商(研发单位):
太空探索技术公司
制造商所在国:
美国
使用方式:
暂无
卫星简介
星链(Starlink)计划是由太空探索技术公司(SpaceX)提出的一个巨型低轨卫星互联网星座项目,计划在2019年至2024年间在太空搭建由约1.2万颗卫星组成的“星链”网络,其中1584颗将部署在地球上空550千米处的近地轨道,并从2020年开始工作。该卫星仍在工作。